When you browse on this site, cookies collect data to enhance your experience and personalize the content and advertising you see.
Visit our Privacy Policy to learn more. By continuing to use the site, you agree to this use of cookies and data.
  • In Austria
  • List of Countries
  • For 7 days
  • Water Temperature
  • Weather Map
  • News
  • Weather Widgets
  • user-avatar
    Login

    Hourly Weather Ruse

    Today, 18 October, Friday

    Time Temperature Precipitation Wind Pressure Humidity
    00:00 +18°C° 0 mm 1 mps 758 mmHg 58%
    01:00 +16°C° 0 mm 1 mps 758 mmHg 59%
    02:00 +16°C° 0 mm 1 mps 758 mmHg 59%
    03:00 +16°C° 0 mm 1 mps 758 mmHg 60%
    04:00 +15°C° 0 mm 1 mps 758 mmHg 61%
    05:00 +15°C° 0 mm 1 mps 758 mmHg 62%
    06:00 +16°C° 0 mm 1 mps 758 mmHg 59%
    07:00 +16°C° 0 mm 1 mps 758 mmHg 57%
    08:00 +16°C° 0 mm 0 mps 758 mmHg 54%
    09:00 +20°C° 0 mm 1 mps 758 mmHg 48%
    10:00 +22°C° 0 mm 1 mps 758 mmHg 42%
    11:00 +25°C° 0 mm 1 mps 758 mmHg 36%
    12:00 +26°C° 0 mm 1 mps 758 mmHg 33%
    13:00 +27°C° 0 mm 2 mps 757 mmHg 31%
    14:00 +28°C° 0 mm 2 mps 757 mmHg 29%
    15:00 +27°C° 0 mm 2 mps 757 mmHg 31%
    16:00 +26°C° 0 mm 2 mps 756 mmHg 34%
    17:00 +25°C° 0 mm 2 mps 756 mmHg 37%
    18:00 +23°C° 0 mm 2 mps 756 mmHg 40%
    19:00 +21°C° 0 mm 2 mps 756 mmHg 44%
    20:00 +20°C° 0 mm 2 mps 757 mmHg 48%
    21:00 +19°C° 0 mm 2 mps 757 mmHg 49%
    22:00 +20°C° 0 mm 1 mps 757 mmHg 50%
    23:00 +19°C° 0 mm 1 mps 757 mmHg 51%

    Tomorrow, 19 October, Saturday

    Time Temperature Precipitation Wind Pressure Humidity
    00:00 +19°C° 0 mm 1 mps 757 mmHg 52%
    01:00 +18°C° 0 mm 1 mps 757 mmHg 54%
    02:00 +18°C° 0 mm 1 mps 757 mmHg 55%
    03:00 +18°C° 0 mm 1 mps 757 mmHg 57%
    04:00 +16°C° 0 mm 1 mps 757 mmHg 58%
    05:00 +16°C° 0 mm 1 mps 757 mmHg 60%
    06:00 +16°C° 0 mm 0 mps 757 mmHg 58%
    07:00 +17°C° 0 mm 0 mps 758 mmHg 57%
    08:00 +17°C° 0 mm 0 mps 758 mmHg 55%
    09:00 +19°C° 0 mm 0 mps 758 mmHg 49%
    10:00 +22°C° 0 mm 0 mps 758 mmHg 43%
    11:00 +24°C° 0 mm 0 mps 758 mmHg 37%
    12:00 +27°C° 0 mm 1 mps 758 mmHg 34%
    13:00 +28°C° 0 mm 1 mps 757 mmHg 31%
    14:00 +29°C° 0 mm 2 mps 757 mmHg 29%
    15:00 +28°C° 0 mm 2 mps 757 mmHg 30%
    16:00 +27°C° 0 mm 2 mps 757 mmHg 32%
    17:00 +26°C° 0 mm 2 mps 757 mmHg 34%
    18:00 +25°C° 0 mm 2 mps 757 mmHg 38%
    19:00 +23°C° 0 mm 2 mps 757 mmHg 41%
    20:00 +21°C° 0 mm 2 mps 758 mmHg 45%
    21:00 +20°C° 0 mm 2 mps 758 mmHg 48%
    22:00 +21°C° 0 mm 1 mps 758 mmHg 51%
    23:00 +20°C° 0 mm 1 mps 758 mmHg 54%

    Day after tomorrow, 20 October, Sunday

    Time Temperature Precipitation Wind Pressure Humidity
    00:00 +20°C° 0 mm 1 mps 758 mmHg 55%
    01:00 +19°C° 0 mm 1 mps 758 mmHg 57%
    02:00 +19°C° 0 mm 1 mps 758 mmHg 58%
    03:00 +19°C° 0 mm 1 mps 758 mmHg 60%
    04:00 +18°C° 0 mm 1 mps 759 mmHg 61%
    05:00 +16°C° 0 mm 0 mps 759 mmHg 62%
    06:00 +16°C° 0 mm 0 mps 759 mmHg 60%
    07:00 +17°C° 0 mm 0 mps 759 mmHg 57%
    08:00 +18°C° 0 mm 0 mps 759 mmHg 55%
    09:00 +20°C° 0 mm 0 mps 759 mmHg 49%
    10:00 +22°C° 0 mm 0 mps 759 mmHg 44%
    11:00 +24°C° 0 mm 0 mps 759 mmHg 38%
    12:00 +27°C° 0 mm 1 mps 759 mmHg 36%
    13:00 +28°C° 0 mm 1 mps 759 mmHg 33%
    14:00 +29°C° 0 mm 1 mps 758 mmHg 31%
    15:00 +28°C° 0 mm 1 mps 758 mmHg 33%
    16:00 +27°C° 0 mm 2 mps 758 mmHg 35%
    17:00 +26°C° 0 mm 2 mps 758 mmHg 37%
    18:00 +25°C° 0 mm 2 mps 759 mmHg 41%
    19:00 +24°C° 0 mm 2 mps 759 mmHg 45%
    20:00 +22°C° 0 mm 1 mps 759 mmHg 48%
    21:00 +22°C° 0 mm 1 mps 759 mmHg 51%
    22:00 +21°C° 0 mm 1 mps 760 mmHg 53%
    23:00 +20°C° 0 mm 1 mps 760 mmHg 56%

    21 October, Monday

    Time Temperature Precipitation Wind Pressure Humidity
    00:00 +20°C° 0 mm 1 mps 760 mmHg 58%
    01:00 +20°C° 0 mm 1 mps 760 mmHg 60%
    02:00 +19°C° 0 mm 1 mps 760 mmHg 62%
    03:00 +19°C° 0 mm 1 mps 760 mmHg 63%
    04:00 +18°C° 0 mm 1 mps 760 mmHg 65%
    05:00 +18°C° 0 mm 1 mps 760 mmHg 66%
    06:00 +17°C° 0 mm 0 mps 760 mmHg 64%
    07:00 +17°C° 0 mm 0 mps 760 mmHg 62%
    08:00 +18°C° 0 mm 0 mps 760 mmHg 59%
    09:00 +20°C° 0 mm 0 mps 760 mmHg 53%
    10:00 +22°C° 0 mm 0 mps 760 mmHg 46%
    11:00 +24°C° 0 mm 0 mps 760 mmHg 39%
    12:00 +25°C° 0 mm 0 mps 760 mmHg 36%
    13:00 +28°C° 0 mm 1 mps 760 mmHg 33%
    14:00 +29°C° 0 mm 1 mps 760 mmHg 31%
    15:00 +28°C° 0 mm 1 mps 759 mmHg 33%
    16:00 +27°C° 0 mm 1 mps 759 mmHg 35%
    17:00 +26°C° 0 mm 1 mps 759 mmHg 37%
    18:00 +25°C° 0 mm 1 mps 759 mmHg 40%
    19:00 +24°C° 0 mm 1 mps 759 mmHg 43%
    20:00 +22°C° 0 mm 1 mps 760 mmHg 46%
    21:00 +22°C° 0 mm 1 mps 760 mmHg 47%
    22:00 +21°C° 0 mm 1 mps 760 mmHg 48%
    23:00 +20°C° 0 mm 1 mps 760 mmHg 50%

    22 October, Tuesday

    Time Temperature Precipitation Wind Pressure Humidity
    00:00 +20°C° 0 mm 1 mps 760 mmHg 51%
    01:00 +20°C° 0 mm 1 mps 760 mmHg 52%
    02:00 +19°C° 0 mm 1 mps 760 mmHg 53%
    03:00 +17°C° 0 mm 0 mps 760 mmHg 54%
    04:00 +16°C° 0 mm 0 mps 760 mmHg 56%
    05:00 +16°C° 0 mm 0 mps 760 mmHg 57%
    06:00 +19°C° 0 mm 1 mps 760 mmHg 56%
    07:00 +19°C° 0 mm 1 mps 760 mmHg 54%
    08:00 +20°C° 0 mm 1 mps 760 mmHg 53%
    09:00 +22°C° 0 mm 1 mps 760 mmHg 48%
    10:00 +24°C° 0 mm 1 mps 760 mmHg 43%
    11:00 +26°C° 0 mm 1 mps 760 mmHg 38%
    12:00 +27°C° 0 mm 1 mps 760 mmHg 36%
    13:00 +28°C° 0 mm 1 mps 759 mmHg 33%
    14:00 +29°C° 0 mm 1 mps 759 mmHg 31%
    15:00 +28°C° 0 mm 1 mps 759 mmHg 34%
    16:00 +27°C° 0 mm 1 mps 759 mmHg 36%
    17:00 +26°C° 0 mm 1 mps 759 mmHg 38%
    18:00 +25°C° 0 mm 1 mps 759 mmHg 41%
    19:00 +23°C° 0 mm 1 mps 759 mmHg 43%
    20:00 +20°C° 0 mm 0 mps 760 mmHg 46%
    21:00 +22°C° 0 mm 1 mps 760 mmHg 49%
    22:00 +21°C° 0 mm 1 mps 760 mmHg 51%
    23:00 +20°C° 0 mm 1 mps 760 mmHg 53%

    23 October, Wednesday

    Time Temperature Precipitation Wind Pressure Humidity
    00:00 +20°C° 0 mm 1 mps 760 mmHg 55%
    01:00 +19°C° 0 mm 1 mps 760 mmHg 57%
    02:00 +19°C° 0 mm 1 mps 761 mmHg 60%
    03:00 +17°C° 0 mm 2 mps 761 mmHg 62%
    04:00 +17°C° 0 mm 2 mps 761 mmHg 64%
    05:00 +16°C° 0 mm 2 mps 761 mmHg 66%
    06:00 +17°C° 0 mm 2 mps 761 mmHg 65%
    07:00 +17°C° 0 mm 3 mps 761 mmHg 65%
    08:00 +17°C° 0 mm 3 mps 762 mmHg 65%
    09:00 +19°C° 0 mm 3 mps 761 mmHg 59%
    10:00 +21°C° 0 mm 3 mps 761 mmHg 53%
    11:00 +23°C° 0 mm 4 mps 761 mmHg 47%
    12:00 +25°C° 0 mm 4 mps 761 mmHg 45%
    13:00 +26°C° 0 mm 3 mps 761 mmHg 42%
    14:00 +26°C° 0 mm 3 mps 760 mmHg 40%
    15:00 +25°C° 0 mm 3 mps 760 mmHg 43%
    16:00 +25°C° 0 mm 4 mps 760 mmHg 46%
    17:00 +23°C° 0 mm 4 mps 760 mmHg 49%
    18:00 +21°C° 0 mm 4 mps 760 mmHg 52%
    19:00 +20°C° 0 mm 3 mps 761 mmHg 55%
    20:00 +19°C° 0 mm 3 mps 761 mmHg 59%
    21:00 +18°C° 0 mm 3 mps 761 mmHg 62%
    22:00 +18°C° 0 mm 3 mps 761 mmHg 64%
    23:00 +17°C° 0 mm 2 mps 761 mmHg 67%
    Show more